Hourly Data Report for September 21, 2021

WINNIPEG THE FORKS
MANITOBA
Current Station Operator: ECCC - MSC

49°53'18.008" N
97°07'46.007" W
230.00 m
5023262
71579
XWN

Download Data

Hourly Data (September 2021)
Hourly Data Report for September 21, 2021
TIME
LST
Temp Definition
°C
Dew Point Definition
°C
Rel Hum Definition
%
Precip. Amount Definition
mm

Wind Dir Definition
10's deg

Wind Spd Definition
km/h
Visibility Definition
km
Stn Press Definition
kPa
Hmdx Definition


Wind Chill Definition


Weather Definition


00:00 11.2 4.7 65 0.0 32 6   98.92     LegendNANA
01:00 10.5 4.1 64 0.0 32 7   98.98     LegendNANA
02:00 9.7 4.0 68 0.0 29 5   99.03     LegendNANA
03:00 9.5 3.8 68 0.0 28 5   99.09     LegendNANA
04:00 8.7 3.2 68 0.0 27 7   99.13     LegendNANA
05:00 8.3 5.2 81 0.0 28 5   99.22     LegendNANA
06:00 8.5 5.7 82 0.0 28 6   99.29     LegendNANA
07:00 8.7 5.7 81 0.0 29 5   99.38     LegendNANA
08:00 10.1 5.7 74 0.0 28 3   99.44     LegendNANA
09:00 12.1 6.1 67 0.0 28 6   99.50     LegendNANA
10:00 14.2 6.1 58 0.0 24 5   99.54     LegendNANA
11:00 16.3 4.7 46 0.0 25 5   99.55     LegendNANA
12:00 17.1 5.1 45 0.0 28 5   99.55     LegendNANA
13:00 18.2 2.8 36 0.0 26 6   99.52     LegendNANA
14:00 18.5 2.9 35 0.0 31 6   99.46     LegendNANA
15:00 19.3 2.2 32 0.0 33 3   99.43     LegendNANA
16:00 19.3 2.2 32 0.0 24 5   99.40     LegendNANA
17:00 19.2 2.1 32 0.0 21 5   99.38     LegendNANA
18:00 17.1 4.2 42 0.0 22 2   99.39     LegendNANA
19:00 13.4 8.5 72 0.6 0 1   99.39     LegendNANA
20:00 12.8 8.7 76 0.0 23 2   99.40     LegendNANA
21:00 12.5 7.4 71 0.0 21 5   99.40     LegendNANA
22:00 11.9 6.9 72 0.0 21 2   99.42     LegendNANA
23:00 12.3 7.1 71 0.0 20 5   99.36     LegendNANA

Notes on Data Quality.

Legend

  • E = Estimated
  • M = Missing
  • NA = Not Available*
  • [empty] = Indicates an unobserved value
Date modified: